Eveleth, MN

5:22 AM CDT on September 26, 2017 (GMT -0500)
Eveleth-Virginia Municipal

Weather History for KEVM - November, 2012

Change the Weather History Date:

Tuesday, November 13, 2012

  Actual Average Record
Temperature  
Mean Temperature 26 °F -  
Max Temperature 32 °F 35 °F 62 °F (1999)
Min Temperature 19 °F 20 °F -9 °F (1986)
Degree Days  
Heating Degree Days 40    
Moisture  
Dew Point 20 °F    
Average Humidity 79    
Maximum Humidity 93    
Minimum Humidity 64    
Precipitation  
Precipitation 0.00 in - - ()
Sea Level Pressure  
Sea Level Pressure 30.22 in    
Wind  
Wind Speed 7 mph (SW)    
Max Wind Speed 10 mph    
Max Gust Speed 16 mph    
Visibility 10 miles    
Events      
Averages and records for this station are not official NWS values.
T = Trace of Precipitation, MM = Missing Value Source: NWS Daily Summary

Daily Weather History Graph

Daily Weather History Graph

Search for Another Location

Airport or City:

Trip Planner

Search our weather history database for the weather conditions in past years. The results will help you decide how hot, cold, wet, or windy it might be!

Date:

Astronomy

Nov. 13, 2012 Rise Set
Actual Time 7:12 AM CST 4:35 PM CST
Civil Twilight 6:39 AM CST 5:09 PM CST
Nautical Twilight 6:01 AM CST 5:46 PM CST
Astronomical Twilight 5:25 AM CST 6:22 PM CST
Moon 6:52 AM CST (11/13) 4:27 PM CST (11/13)
Length of Visible Light 10h 29m
Length of Day
9h 23m
Waning Crescent, 0% of the Moon is Illuminated
Nov 13
Waning Crescent
Nov 13
New
Nov 20
First Quarter
Nov 28
Full
Dec 6
Last Quarter

Hourly Weather History & Observations

Time (CST) Temp. Windchill Dew Point Humidity Pressure Visibility Wind Dir Wind Speed Gust Speed Precip Events Conditions
12:09 AM 21.2 °F 10.9 °F 17.6 °F 86% 30.15 in 10.0 mi WSW 9.2 mph - N/A   Overcast
12:29 AM 21.2 °F 10.9 °F 17.6 °F 86% 30.16 in 10.0 mi WSW 9.2 mph - N/A   Overcast
12:50 AM 21.2 °F 10.9 °F 17.6 °F 86% 30.17 in 10.0 mi West 9.2 mph - N/A   Overcast
1:09 AM 21.2 °F 11.7 °F 17.6 °F 86% 30.16 in 10.0 mi West 8.1 mph - N/A   Overcast
1:29 AM 21.2 °F 11.7 °F 17.6 °F 86% 30.17 in 10.0 mi WSW 8.1 mph - N/A   Overcast
1:50 AM 21.2 °F 11.7 °F 17.6 °F 86% 30.18 in 10.0 mi WSW 8.1 mph - N/A   Overcast
2:09 AM 21.2 °F 11.7 °F 17.6 °F 86% 30.18 in 10.0 mi West 8.1 mph - N/A   Overcast
2:29 AM 21.2 °F 10.1 °F 17.6 °F 86% 30.20 in 10.0 mi WSW 10.4 mph - N/A   Overcast
2:50 AM 21.2 °F 11.7 °F 17.6 °F 86% 30.20 in 10.0 mi West 8.1 mph - N/A   Overcast
3:09 AM 21.2 °F 12.6 °F 17.6 °F 86% 30.20 in 10.0 mi WSW 6.9 mph - N/A   Overcast
3:29 AM 21.2 °F 11.7 °F 17.6 °F 86% 30.20 in 10.0 mi WSW 8.1 mph - N/A   Overcast
3:50 AM 21.2 °F 12.6 °F 17.6 °F 86% 30.20 in 10.0 mi WSW 6.9 mph - N/A   Overcast
4:09 AM 21.2 °F 10.9 °F 17.6 °F 86% 30.21 in 10.0 mi WSW 9.2 mph - N/A   Overcast
4:29 AM 21.2 °F 11.7 °F 17.6 °F 86% 30.21 in 10.0 mi SW 8.1 mph - N/A   Overcast
4:50 AM 19.4 °F 11.5 °F 17.6 °F 93% 30.21 in 10.0 mi WSW 5.8 mph - N/A   Overcast
5:06 AM 21.2 °F 12.6 °F 17.6 °F 86% 30.22 in 10.0 mi SW 6.9 mph - N/A   Overcast
5:29 AM 19.4 °F 11.5 °F 17.6 °F 93% 30.22 in 10.0 mi SW 5.8 mph - N/A   Overcast
5:49 AM 19.4 °F 8.6 °F 17.6 °F 93% 30.22 in 10.0 mi SSW 9.2 mph - N/A   Overcast
6:10 AM 19.4 °F 10.4 °F 15.8 °F 86% 30.22 in 10.0 mi SSW 6.9 mph - N/A   Overcast
6:29 AM 19.4 °F 11.5 °F 15.8 °F 86% 30.22 in 10.0 mi SSW 5.8 mph - N/A   Overcast
6:49 AM 19.4 °F 10.4 °F 17.6 °F 93% 30.23 in 10.0 mi SSW 6.9 mph - N/A   Overcast
7:10 AM 19.4 °F 8.6 °F 17.6 °F 93% 30.24 in 7.0 mi SSW 9.2 mph - N/A   Overcast
7:29 AM 19.4 °F 11.5 °F 17.6 °F 93% 30.24 in 10.0 mi SSW 5.8 mph - N/A   Overcast
7:49 AM 19.4 °F 10.4 °F 15.8 °F 86% 30.25 in 7.0 mi SSW 6.9 mph - N/A   Overcast
8:10 AM 19.4 °F 10.4 °F 17.6 °F 93% 30.26 in 10.0 mi SW 6.9 mph - N/A   Overcast
8:29 AM 19.4 °F 8.6 °F 17.6 °F 93% 30.26 in 10.0 mi SSW 9.2 mph - N/A   Overcast
8:49 AM 19.4 °F 8.6 °F 15.8 °F 86% 30.26 in 10.0 mi South 9.2 mph - N/A   Overcast
9:10 AM 19.4 °F 10.4 °F 15.8 °F 86% 30.26 in 10.0 mi SSW 6.9 mph - N/A   Mostly Cloudy
9:29 AM - - - N/A% - 10.0 mi South 9.2 mph - N/A   Unknown
9:49 AM 23.0 °F 13.1 °F 17.6 °F 80% 30.26 in 10.0 mi SSW 9.2 mph - N/A   Scattered Clouds
10:09 AM 23.0 °F 13.1 °F 17.6 °F 80% 30.25 in 10.0 mi South 9.2 mph - N/A   Clear
10:29 AM 24.8 °F 16.1 °F 17.6 °F 74% 30.25 in 10.0 mi SSW 8.1 mph - N/A   Clear
10:50 AM 26.6 °F 19.1 °F 17.6 °F 69% 30.25 in 10.0 mi SSW 6.9 mph - N/A   Clear
11:09 AM 26.6 °F 16.8 °F 17.6 °F 69% 30.24 in 10.0 mi SSW 10.4 mph - N/A   Clear
11:29 AM 30.2 °F 23.4 °F 19.4 °F 64% 30.23 in 10.0 mi SSW 6.9 mph - N/A   Clear
11:50 AM - - - N/A% - - North - - N/A   Unknown
12:09 PM - - - N/A% - - North - - N/A   Unknown
12:50 PM 32.0 °F 25.6 °F 21.2 °F 64% 30.22 in 10.0 mi WSW 6.9 mph 16.1 mph N/A   Unknown
1:09 PM 32.0 °F 24.8 °F 21.2 °F 64% 30.22 in 10.0 mi SW 8.1 mph - N/A   Clear
1:29 PM 32.0 °F 23.6 °F 21.2 °F 64% 30.22 in 10.0 mi SSW 10.4 mph - N/A   Scattered Clouds
1:50 PM 32.0 °F 25.6 °F 21.2 °F 64% 30.22 in 10.0 mi SSW 6.9 mph - N/A   Scattered Clouds
2:09 PM 32.0 °F 27.5 °F 21.2 °F 64% 30.21 in 10.0 mi SSW 4.6 mph - N/A   Scattered Clouds
2:29 PM 32.0 °F 25.6 °F 21.2 °F 64% 30.21 in 10.0 mi SSW 6.9 mph - N/A   Scattered Clouds
2:50 PM 32.0 °F 26.4 °F 21.2 °F 64% 30.21 in 10.0 mi SSW 5.8 mph - N/A   Scattered Clouds
3:09 PM 32.0 °F 25.6 °F 21.2 °F 64% 30.21 in 10.0 mi SW 6.9 mph - N/A   Scattered Clouds
3:30 PM 32.0 °F 25.6 °F 21.2 °F 64% 30.21 in 10.0 mi SW 6.9 mph - N/A   Clear
3:49 PM 32.0 °F 28.7 °F 21.2 °F 64% 30.22 in 10.0 mi SSW 3.5 mph - N/A   Clear
4:09 PM 32.0 °F 28.7 °F 21.2 °F 64% 30.22 in 10.0 mi SSW 3.5 mph - N/A   Scattered Clouds
4:30 PM 32.0 °F - 23.0 °F 69% 30.22 in 10.0 mi Calm Calm - N/A   Clear
4:49 PM 32.0 °F - 23.0 °F 69% 30.22 in 10.0 mi Calm Calm - N/A   Clear
5:09 PM 32.0 °F - 23.0 °F 69% 30.23 in 10.0 mi Calm Calm - N/A   Clear
5:30 PM 32.0 °F 27.5 °F 23.0 °F 69% 30.24 in 10.0 mi South 4.6 mph - N/A   Scattered Clouds
5:49 PM 32.0 °F 28.7 °F 23.0 °F 69% 30.24 in 10.0 mi South 3.5 mph - N/A   Scattered Clouds
6:09 PM 32.0 °F 27.5 °F 23.0 °F 69% 30.24 in 10.0 mi South 4.6 mph - N/A   Scattered Clouds
6:30 PM 30.2 °F 26.7 °F 21.2 °F 69% 30.24 in 10.0 mi South 3.5 mph - N/A   Scattered Clouds
6:49 PM 30.2 °F - 21.2 °F 69% 30.24 in 10.0 mi Calm Calm - N/A   Scattered Clouds
7:09 PM 30.2 °F - 21.2 °F 69% 30.24 in 10.0 mi Calm Calm - N/A   Mostly Cloudy
7:30 PM 30.2 °F - 21.2 °F 69% 30.24 in 10.0 mi Calm Calm - N/A   Mostly Cloudy
7:49 PM 28.4 °F - 21.2 °F 74% 30.24 in 10.0 mi Calm Calm - N/A   Mostly Cloudy
8:09 PM 28.4 °F - 21.2 °F 74% 30.24 in 10.0 mi Calm Calm - N/A   Overcast
8:30 PM 26.6 °F - 21.2 °F 80% 30.24 in 10.0 mi Calm Calm - N/A   Scattered Clouds
8:49 PM 26.6 °F - 21.2 °F 80% 30.24 in 10.0 mi Calm Calm - N/A   Clear
9:09 PM 26.6 °F - 21.2 °F 80% 30.24 in 10.0 mi Calm Calm - N/A   Scattered Clouds
9:30 PM 24.8 °F - 21.2 °F 86% 30.24 in 10.0 mi Calm Calm - N/A   Scattered Clouds
9:49 PM 24.8 °F - 21.2 °F 86% 30.24 in 10.0 mi Calm Calm - N/A   Clear
10:09 PM 23.0 °F - 21.2 °F 93% 30.24 in 10.0 mi Calm Calm - N/A   Scattered Clouds
10:30 PM 23.0 °F - 21.2 °F 93% 30.24 in 10.0 mi Calm Calm - N/A   Mostly Cloudy
10:49 PM 24.8 °F - 21.2 °F 86% 30.24 in 10.0 mi Calm Calm - N/A   Overcast
11:09 PM 26.6 °F - 23.0 °F 86% 30.24 in 10.0 mi Calm Calm - N/A   Overcast
11:30 PM 26.6 °F - 23.0 °F 86% 30.24 in 10.0 mi Calm Calm - N/A   Overcast
11:49 PM 26.6 °F - 23.0 °F 86% 30.23 in 10.0 mi Calm Calm - N/A   Overcast